Location: Laas
(43.4693°N, 0.3073°E)
Time: 14:43:12
(UTC+00:00)

CZ-2C R/B - Pass Details

Date: 25 October 2020
Orbit: 703 x 909 km, 98.1° (Epoch: 23 November)

Event Time Altitude Azimuth Distance (km) Brightness Sun altitude
Rises 17:35:01 0° 132° (SE) 3,527 6.1 -7.1°
Reaches altitude 10° 17:37:46 10° 121° (ESE) 2,586 5.3 -7.6°
Maximum altitude 17:42:34 28° 65° (ENE) 1,622 4.2 -8.5°
Drops below altitude 10° 17:47:18 10° 9° (N) 2,542 5.5 -9.3°
Sets 17:49:58 0° 358° (N) 3,457 6.3 -9.8°
